This demonstration page uses our WeatherBlox Daily Observations layout. Learn more.

Hourly Observations for April 16, 2019

Temp ( °F °C ) Dew Point ( °F °C ) Humidity (%) Winds ( mph kmh ) Pressure ( in mb ) Visibility ( mi km ) Precip ( " mm )
12:15 am 00:15 Clear 50 10.2 45 7.1 81 81 NNE 16 26 29.76 1008 10 16.0934 0 0
12:35 am 00:35 Clear 49 9.6 44 6.5 81 81 NNE 14 22 29.77 1008 10 16.0934 0 0
12:55 am 00:55 Clear 49 9.2 43 6.2 82 82 NE 16 26 29.77 1008 10 16.0934 0 0
1:15 am 01:15 Clear 48 9 43 6 82 82 NE 18 30 29.77 1008 10 16.0934 0 0
1:35 am 01:35 Clear 47 8.5 42 5.7 83 83 NE 15 24 29.78 1008 10 16.0934 0 0
1:55 am 01:55 Clear 47 8.1 42 5.6 84 84 NE 15 24 29.78 1008 10 16.0934 0 0
2:15 am 02:15 Clear 47 8.1 41 5.1 82 82 NE 15 24 29.78 1008 10 16.0934 0 0
2:35 am 02:35 Clear 46 8 41 5 82 82 NE 16 26 29.78 1008 10 16.0934 0 0
2:55 am 02:55 Clear 46 7.7 41 5 83 83 NE 17 28 29.77 1008 10 16.0934 0 0
3:15 am 03:15 Clear 45 7.3 41 4.8 84 84 NE 15 24 29.78 1008 10 16.0934 0 0
3:35 am 03:35 Clear 45 7.2 40 4.7 84 84 NNE 13 20 29.79 1009 10 16.0934 0 0
3:55 am 03:55 Clear 45 7 40 4.6 85 85 NNE 13 20 29.8 1009 10 16.0934 0 0
4:15 am 04:15 Clear 44 6.5 40 4.3 86 86 NNE 14 22 29.8 1009 10 16.0934 0 0
4:35 am 04:35 Clear 43 6.3 40 4.2 87 87 NNE 14 22 29.81 1009 10 16.0934 0 0
4:55 am 04:55 Clear 43 6.2 39 4 86 86 NNE 14 22 29.81 1009 10 16.0934 0 0
5:15 am 05:15 Clear 43 6 39 3.8 86 86 NNE 13 20 29.82 1010 10 16.0934 0 0
5:35 am 05:35 Clear 43 6 38 3.6 85 85 NNE 14 22 29.82 1010 10 16.0934 0 0
5:55 am 05:55 Clear 43 6.1 38 3.5 84 84 NE 13 20 29.83 1010 10 16.0934 0 0
6:15 am 06:15 Clear 44 6.4 38 3.3 81 81 NE 14 22 29.82 1010 10 16.0934 0 0
6:35 am 06:35 Clear 43 6.1 38 3.2 82 82 NE 13 20 29.83 1010 10 16.0934 0 0
6:55 am 06:55 Clear 43 6 37 3 81 81 NE 10 17 29.84 1010 10 16.0934 0 0
7:15 am 07:15 Sunny 42 5.6 38 3.1 84 84 NE 9 15 29.86 1011 10 16.0934 0 0
7:35 am 07:35 Sunny 42 5.8 38 3.2 84 84 NE 10 17 29.86 1011 10 16.0934 0 0
7:55 am 07:55 Sunny 44 6.6 38 3.5 81 81 NE 13 20 29.86 1011 10 16.0934 0 0
8:15 am 08:15 Sunny 46 7.9 39 3.9 76 76 NE 14 22 29.85 1011 10 16.0934 0 0
8:35 am 08:35 Sunny 47 8.6 39 4 73 73 ENE 18 30 29.85 1011 10 16.0934 0 0
8:55 am 08:55 Sunny 49 9.7 40 4.4 70 70 ENE 16 26 29.85 1011 10 16.0934 0 0
9:15 am 09:15 Sunny 52 11 41 4.8 66 66 NE 17 28 29.84 1011 10 16.0934 0 0
9:35 am 09:35 Sunny 53 11.9 41 5.2 64 64 ENE 20 31 29.83 1010 10 16.0934 0 0
9:55 am 09:55 Sunny 55 12.6 42 5.6 63 63 NE 18 30 29.83 1010 10 16.0934 0 0
10:15 am 10:15 Sunny 55 13 43 6 63 63 ENE 20 31 29.82 1010 10 16.0934 0 0
10:35 am 10:35 Sunny 57 14 44 6.6 61 61 ENE 20 31 29.8 1009 10 16.0934 0 0
10:55 am 10:55 Sunny 59 14.9 45 7 59 59 ENE 20 31 29.8 1009 10 16.0934 0 0
11:15 am 11:15 Sunny 61 16.2 46 7.6 57 57 E 18 30 29.78 1008 10 16.0934 0 0
11:35 am 11:35 Sunny 63 17.2 46 7.7 54 54 E 20 31 29.77 1008 10 16.0934 0 0
11:55 am 11:55 Sunny 65 18.1 47 8.4 53 53 E 22 35 29.76 1008 10 16.0934 0 0
12:15 pm 12:15 Sunny 66 19.1 48 8.8 51 51 E 23 37 29.76 1008 10 16.0934 0 0
12:35 pm 12:35 Sunny 67 19.7 49 9.2 51 51 E 22 35 29.75 1007 10 16.0934 0 0
12:55 pm 12:55 Sunny 69 20.6 49 9.6 49 49 E 23 37 29.72 1007 10 16.0934 0 0
1:15 pm 13:15 Sunny 70 21.3 50 9.9 48 48 E 24 39 29.72 1006 10 16.0934 0 0
1:35 pm 13:35 Sunny 71 21.7 50 9.9 47 47 E 21 33 29.69 1006 10 16.0934 0 0
1:55 pm 13:55 Sunny 72 22.2 49 9.7 45 45 E 18 30 29.68 1005 10 16.0934 0 0
2:15 pm 14:15 Sunny 73 22.5 49 9.6 44 44 E 23 37 29.67 1005 10 16.0934 0 0
2:35 pm 14:35 Sunny 73 22.9 49 9.7 43 43 E 20 31 29.66 1005 10 16.0934 0 0
2:55 pm 14:55 Sunny 73 22.8 50 9.8 44 44 E 22 35 29.66 1004 10 16.0934 0 0
3:15 pm 15:15 Sunny 73 23 51 10.4 45 45 ESE 24 39 29.64 1004 10 16.0934 0 0
3:35 pm 15:35 Sunny 74 23.1 51 10.8 46 46 ESE 21 33 29.62 1003 10 16.0934 0 0
3:55 pm 15:55 Sunny 75 23.7 52 10.9 45 45 ESE 22 35 29.62 1003 10 16.0934 0 0
4:15 pm 16:15 Sunny 74 23.3 52 11.3 47 47 E 21 33 29.61 1003 10 16.0934 0 0
4:35 pm 16:35 Sunny 75 23.7 53 11.5 46 46 ESE 17 28 29.59 1002 10 16.0934 0 0
4:55 pm 16:55 Sunny 75 23.7 53 11.6 47 47 E 17 28 29.59 1002 10 16.0934 0 0
5:15 pm 17:15 Sunny 75 23.7 53 11.5 46 46 E 21 33 29.58 1002 10 16.0934 0 0
5:35 pm 17:35 Sunny 75 23.8 54 12 48 48 ESE 21 33 29.58 1002 10 16.0934 0 0
5:55 pm 17:55 Sunny 74 23.6 53 11.9 48 48 ESE 17 28 29.58 1002 10 16.0934 0 0
6:15 pm 18:15 Sunny 74 23.3 52 11.3 47 47 ESE 17 28 29.58 1002 10 16.0934 0 0
6:35 pm 18:35 Sunny 73 23 52 11.3 48 48 ESE 18 30 29.57 1001 10 16.0934 0 0
6:55 pm 18:55 Sunny 73 22.7 53 11.8 50 50 ESE 16 26 29.58 1002 10 16.0934 0 0
7:15 pm 19:15 Sunny 72 22.4 54 12.2 53 53 ESE 12 19 29.58 1002 10 16.0934 0 0
7:35 pm 19:35 Sunny 71 21.9 53 11.6 52 52 ESE 10 17 29.59 1002 10 16.0934 0 0
7:55 pm 19:55 Sunny 70 21 53 11.7 55 55 ESE 9 15 29.59 1002 10 16.0934 0 0
8:15 pm 20:15 Sunny 65 18.4 52 11.3 63 63 E 8 13 29.61 1003 10 16.0934 0 0
8:35 pm 20:35 Clear 62 16.5 52 10.9 70 70 E 9 15 29.62 1003 10 16.0934 0 0
8:55 pm 20:55 Clear 62 16.8 51 10.8 68 68 E 9 15 29.61 1003 10 16.0934 0 0
9:15 pm 21:15 Clear 59 15.2 51 10.4 73 73 E 7 11 29.64 1004 10 16.0934 0 0
9:35 pm 21:35 Clear 58 14.5 50 10.2 76 76 E 9 15 29.64 1004 10 16.0934 0 0
9:55 pm 21:55 Clear 58 14.6 50 9.8 73 73 E 13 20 29.63 1003 10 16.0934 0 0
10:15 pm 22:15 Clear 59 15.2 49 9.5 69 69 ESE 12 19 29.64 1004 10 16.0934 0 0
10:35 pm 22:35 Clear 60 15.3 50 10.1 71 71 ESE 10 17 29.64 1004 10 16.0934 0 0
10:55 pm 22:55 Clear 60 15.7 52 11.1 74 74 SE 10 17 29.63 1004 10 16.0934 0 0
11:15 pm 23:15 Clear 61 16.1 54 12.1 77 77 SSE 12 19 29.62 1003 10 16.0934 0 0
11:35 pm 23:35 Clear 60 15.8 55 13 84 84 SSE 10 17 29.62 1003 10 16.0934 0 0
11:55 pm 23:55 Clear 60 15.8 57 13.7 87 87 SSE 12 19 29.62 1003 10 16.0934 0 0

Powered by AerisWeather